Location: Boiro
(42.6475°N, 8.8834°W)
Time: 22:38:01
(UTC+01:00)

A-11 Canister half - Pass Details

Date: 04 December 2021
Orbit: 1516 x 1684 km, 47.2° (Epoch: 18 January)

Event Time Altitude Azimuth Distance (km) Brightness Sun altitude
Rises 08:09:13 0° 226° (SW) 4,730 11.3 -7.4°
Reaches altitude 10° 08:12:16 10° 223° (SW) 3,770 10.9 -6.9°
Maximum altitude 08:21:43 64° 145° (SE) 1,762 9.7 -5.3°
Drops below altitude 10° 08:31:32 10° 67° (ENE) 3,910 11.8 -3.7°
Sets 08:34:45 0° 64° (ENE) 4,915 12.2 -3.2°
